Home > Weather > Rio de Janeiro > Past weeks

Flag for Brazil Weather for the Past 2 Weeks in Rio de Janeiro, Rio de Janeiro, Brazil

Now
79 °F

Clear.


Feels Like: 82 °F
Forecast: 76 / 96 °F
Wind: 3 mph from North

Location: Rio De Janeiro Airport

Current Time: Feb 9, 2016 at 4:48:36 AM

Latest Report: Feb 9, 2016 at 3:00 AM


Visibility: 10 mi

Pressure: 29.95 "Hg

Humidity: 84%

Dew point: 73 °F

Location of Rio de JaneiroLocation

Historic Weather in Rio de Janeiro — Graph

°F

Rio de Janeiro Temperature Yesterday

Maximum temperature yesterday: 88 °F (at 10:00 AM)
Minimum temperature yesterday: 77 °F (at 12:00 AM)
Average temperature yesterday: 83 °F

High & Low Weather Summary for the Past Weeks

 TemperatureHumidityPressure
High99 °F (Jan 31, 2:00 PM)100% (Jan 26, 12:00 AM)30.01 "Hg (Jan 26, 12:00 AM)
Low45 °F (Jan 28, 5:00 PM)18% (Jan 28, 2:00 PM)29.71 "Hg (Jan 26, 5:00 PM)
Average83 °F79%29.91 "Hg
* Reported Jan 25 3:00 AM — Feb 9 3:00 AM, Rio de Janeiro, Weather by CustomWeather, © 2016

Note: Actual official high and low records may vary slightly from our data, if they occured in-between our weather recording intervals... More about our weather records

Advertising

Rio de Janeiro Weather History for the Previous 24 Hours

 ConditionsComfort  
Time TempWeatherWind HumidityBarometerVisibility
3:00 AM
Tue, Feb 9
79 °FClear.3 mph84%29.95 "Hg10 mi
2:00 AM79 °FClear.3 mph79%29.98 "Hg10 mi
1:00 AM79 °FClear.7 mph84%29.98 "Hg10 mi
12:00 AM82 °FClear.2 mph74%29.98 "Hg10 mi
11:00 PM
Mon, Feb 8
82 °FClear.3 mph70%29.98 "Hg10 mi
10:00 PM81 °FClear.2 mph84%29.95 "Hg10 mi
9:00 PM84 °FClear.5 mph74%29.92 "Hg10 mi
8:00 PM84 °FClear.13 mph74%29.92 "Hg10 mi
7:00 PM86 °FPassing clouds.13 mph70%29.92 "HgN/A
6:00 PM86 °FPassing clouds.14 mph70%29.89 "HgN/A
5:00 PM86 °FPassing clouds.13 mph70%29.92 "HgN/A
4:00 PM88 °FPassing clouds.17 mph66%29.92 "HgN/A
3:00 PM88 °FPassing clouds.17 mph70%29.95 "HgN/A
2:00 PM88 °FPassing clouds.13 mph70%29.95 "HgN/A
1:00 PM86 °FPassing clouds.15 mph75%29.98 "HgN/A
12:00 PM88 °FPassing clouds.12 mph75%29.98 "HgN/A
11:00 AM86 °FPassing clouds.8 mph75%30.01 "HgN/A
10:00 AM88 °FPassing clouds.2 mph62%30.01 "HgN/A
9:00 AM84 °FSunny.2 mph70%30.01 "Hg10 mi
8:00 AM79 °FPassing clouds.6 mph84%30.01 "HgN/A
7:00 AM77 °FPassing clouds.1 mph89%29.98 "Hg6 mi
6:00 AM77 °FClear.2 mph89%29.98 "Hg10 mi
5:00 AM77 °FClear.2 mph89%29.95 "Hg10 mi
4:00 AM77 °FClear.5 mph94%29.98 "Hg10 mi
Weather by CustomWeather, © 2016

See weather overviewHow to use our weather pages